This demonstration page uses our WeatherBlox Daily Observations layout. Learn more.

36.17497, -115.13722

Hourly Observations for June 30, 2020

Temp ( °F °C ) Dew Point ( °F °C ) Humidity (%) Winds ( mph kmh ) Pressure ( in mb ) Visibility ( mi km ) Precip ( " mm )
12:53 am 00:53 Clear 75 23.9 17 -8.3 11 11 NW 8 13 29.83 1010 10 16.0934 0 0
1:53 am 01:53 Clear 77 25 16 -8.9 10 10 NNW 15 24 29.83 1010 10 16.0934 0 0
2:53 am 02:53 Clear 76 24.4 16 -8.9 10 10 NW 15 24 29.83 1010 10 16.0934 0 0
3:53 am 03:53 Clear 75 23.9 19 -7.2 12 12 NW 14 22 29.84 1010 10 16.0934 0 0
4:53 am 04:53 Clear 73 22.8 22 -5.6 15 15 NNW 15 24 29.86 1011 10 16.0934 0 0
5:53 am 05:53 Sunny 74 23.3 22 -5.6 14 14 NNW 10 17 29.88 1012 10 16.0934 0 0
6:53 am 06:53 Sunny 76 24.4 24 -4.4 14 14 N 13 20 29.89 1012 10 16.0934 0 0
7:53 am 07:53 Sunny 79 26.1 25 -3.9 14 14 NW 13 20 29.91 1013 10 16.0934 0 0
8:53 am 08:53 Sunny 82 27.8 24 -4.4 12 12 N 8 13 29.92 1013 10 16.0934 0 0
9:53 am 09:53 Sunny 85 29.4 23 -5 10 10 NNE 6 9 29.91 1013 10 16.0934 0 0
10:53 am 10:53 Sunny 86 30 24 -4.4 10 10 SE 3 6 29.9 1013 10 16.0934 0 0
11:53 am 11:53 Sunny 87 30.6 23 -5 9 9 SSE 3 6 29.89 1012 10 16.0934 0 0
12:53 pm 12:53 Sunny 90 32.2 24 -4.4 9 9 E 6 9 29.86 1011 10 16.0934 0 0
1:53 pm 13:53 Sunny 90 32.2 24 -4.4 9 9 SSE 6 9 29.83 1010 10 16.0934 0 0
2:53 pm 14:53 Sunny 94 34.4 23 -5 8 8 N 9 15 29.8 1009 10 16.0934 0 0
3:53 pm 15:53 Sunny 93 33.9 22 -5.6 7 7 SSW 6 9 29.79 1009 10 16.0934 0 0
4:53 pm 16:53 Sunny 95 35 22 -5.6 7 7 VRB 7 11 29.76 1008 10 16.0934 0 0
5:53 pm 17:53 Sunny 95 35 23 -5 7 7 VRB 6 9 29.75 1007 10 16.0934 0 0
6:53 pm 18:53 Sunny 95 35 23 -5 7 7 NE 6 9 29.74 1007 10 16.0934 0 0
7:53 pm 19:53 Sunny 93 33.9 21 -6.1 7 7 WSW 6 9 29.74 1007 10 16.0934 0 0
8:53 pm 20:53 Clear 91 32.8 21 -6.1 8 8 WSW 6 9 29.75 1008 10 16.0934 0 0
9:53 pm 21:53 Clear 89 31.7 21 -6.1 8 8 VRB 5 7 29.76 1008 10 16.0934 0 0
10:53 pm 22:53 Clear 86 30 25 -3.9 11 11 W 5 7 29.77 1008 10 16.0934 0 0
11:53 pm 23:53 Clear 83 28.3 26 -3.3 12 12 W 7 11 29.76 1008 10 16.0934 0 0

Powered by AerisWeather